Location: Unspecified
(0.0000°N, 0.0000°E)
Time: 12:37:32
(UTC+02:00)

Ariane H10 - Visible Passes

Search period start: 20 April 2018 00:00
Search period end: 30 April 2018 00:00
Orbit: 402 x 35067 km, 4.3° (Epoch: 19 April)

Date Brightness Start Highest point End Pass type
(mag) Time Alt. Az. Time Alt. Az. Time Alt. Az.
20 Apr 8.1 16:02:29 10° W 17:51:04 72° WNW 01:23:27 55° W visible
21 Apr 7.2 12:30:00 10° W 20:31:21 85° ENE 22:05:56 37° E visible
23 Apr 8.3 16:34:22 10° W 18:21:44 61° W 01:51:53 42° W visible
24 Apr 7.6 12:59:24 10° W 19:38:32 88° N 22:34:22 48° E visible
26 Apr 4.7 06:09:31 20° ESE 06:09:31 20° ESE 06:10:30 10° E visible
26 Apr 8.4 17:07:23 10° W 18:52:10 51° W 02:20:19 30° W visible
27 Apr 7.7 13:29:01 10° W 18:43:31 87° N 23:02:48 60° ESE visible
29 Apr 2.4 06:37:21 55° S 06:37:21 55° S 06:40:24 10° E visible
